iso_date,epoch_date,Year,Hour,Min,DOY,POS_DOY,Lat,Lon,BP,Ts,Ta,has_bp,has_ts,has_ta,BuoyID,Buoy_Type,Buoy_Owner,Logistics,Hemisphere
2015-01-30T12:01:26Z,1422619286,2015,12,2,30.501,30.501,84.72446,-61.59116,1022.0,-999.00,-37.1,yes,no,yes,48597,O-Buoy,Bigelow,unknown,North
2015-01-30T13:01:55Z,1422622915,2015,13,2,30.543,30.543,84.72446,-61.59116,1022.0,-999.00,-36.9,yes,no,yes,48597,O-Buoy,Bigelow,unknown,North
2015-01-30T14:02:24Z,1422626544,2015,14,2,30.585,30.585,84.72446,-61.59116,1021.0,-999.00,-36.1,yes,no,yes,48597,O-Buoy,Bigelow,unknown,North
2015-01-30T15:01:26Z,1422630086,2015,15,2,30.626,30.626,84.72446,-61.59116,1022.0,-999.00,-35.9,yes,no,yes,48597,O-Buoy,Bigelow,unknown,North
2015-01-30T16:01:55Z,1422633715,2015,16,2,30.668,30.668,84.72446,-61.59116,1022.0,-999.00,-35.6,yes,no,yes,48597,O-Buoy,Bigelow,unknown,North
2015-01-30T17:02:24Z,1422637344,2015,17,2,30.71,30.71,84.72446,-61.59116,1021.0,-999.00,-35.2,yes,no,yes,48597,O-Buoy,Bigelow,unknown,North
2015-01-30T18:01:26Z,1422640886,2015,18,2,30.751,30.751,84.72446,-61.59116,1022.0,-999.00,-35.0,yes,no,yes,48597,O-Buoy,Bigelow,unknown,North
2015-01-30T19:01:55Z,1422644515,2015,19,2,30.793,30.793,84.72446,-61.59116,1022.0,-999.00,-35.0,yes,no,yes,48597,O-Buoy,Bigelow,unknown,North
2015-01-30T20:02:24Z,1422648144,2015,20,2,30.835,30.835,84.72446,-61.59116,1022.0,-999.00,-35.5,yes,no,yes,48597,O-Buoy,Bigelow,unknown,North
2015-01-30T21:01:26Z,1422651686,2015,21,2,30.876,30.876,84.72446,-61.59116,1022.0,-999.00,-36.1,yes,no,yes,48597,O-Buoy,Bigelow,unknown,North
2015-01-30T22:01:55Z,1422655315,2015,22,2,30.918,30.918,84.72446,-61.59116,1023.0,-999.00,-36.7,yes,no,yes,48597,O-Buoy,Bigelow,unknown,North
2015-01-30T23:02:24Z,1422658944,2015,23,2,30.96,30.96,84.72446,-61.59116,1023.0,-999.00,-36.9,yes,no,yes,48597,O-Buoy,Bigelow,unknown,North
2015-01-31T00:01:26Z,1422662486,2015,0,2,31.001,31.001,84.72076,-61.49831,1023.0,-999.00,-36.9,yes,no,yes,48597,O-Buoy,Bigelow,unknown,North
2015-01-31T01:01:55Z,1422666115,2015,1,2,31.043,31.043,84.72076,-61.49831,1023.0,-999.00,-37.0,yes,no,yes,48597,O-Buoy,Bigelow,unknown,North
2015-01-31T02:02:24Z,1422669744,2015,2,2,31.085,31.085,84.72076,-61.49831,1023.0,-999.00,-37.7,yes,no,yes,48597,O-Buoy,Bigelow,unknown,North
2015-01-31T03:01:26Z,1422673286,2015,3,2,31.126,31.126,84.72076,-61.49831,1023.0,-999.00,-38.1,yes,no,yes,48597,O-Buoy,Bigelow,unknown,North
2015-01-31T04:01:55Z,1422676915,2015,4,2,31.168,31.168,84.72076,-61.49831,1023.0,-999.00,-38.3,yes,no,yes,48597,O-Buoy,Bigelow,unknown,North
2015-01-31T05:02:24Z,1422680544,2015,5,2,31.21,31.21,84.72076,-61.49831,1023.0,-999.00,-38.6,yes,no,yes,48597,O-Buoy,Bigelow,unknown,North
2015-01-31T06:01:26Z,1422684086,2015,6,2,31.251,31.251,84.72076,-61.49831,1023.0,-999.00,-39.0,yes,no,yes,48597,O-Buoy,Bigelow,unknown,North
2015-01-31T07:01:55Z,1422687715,2015,7,2,31.293,31.293,84.72076,-61.49831,1023.0,-999.00,-39.4,yes,no,yes,48597,O-Buoy,Bigelow,unknown,North
2015-01-31T08:02:24Z,1422691344,2015,8,2,31.335,31.335,84.72076,-61.49831,1023.0,-999.00,-38.6,yes,no,yes,48597,O-Buoy,Bigelow,unknown,North
2015-01-31T09:01:26Z,1422694886,2015,9,2,31.376,31.376,84.72076,-61.49831,1023.0,-999.00,-38.6,yes,no,yes,48597,O-Buoy,Bigelow,unknown,North
2015-01-31T10:01:55Z,1422698515,2015,10,2,31.418,31.418,84.72076,-61.49831,1023.0,-999.00,-39.2,yes,no,yes,48597,O-Buoy,Bigelow,unknown,North
2015-01-31T11:02:24Z,1422702144,2015,11,2,31.46,31.46,84.72076,-61.49831,1023.0,-999.00,-40.1,yes,no,yes,48597,O-Buoy,Bigelow,unknown,North
2015-01-31T12:01:26Z,1422705686,2015,12,2,31.501,31.501,84.72076,-61.49831,1022.0,-999.00,-39.4,yes,no,yes,48597,O-Buoy,Bigelow,unknown,North
2015-01-31T13:01:55Z,1422709315,2015,13,2,31.543,31.543,84.72076,-61.49831,1022.0,-999.00,-38.3,yes,no,yes,48597,O-Buoy,Bigelow,unknown,North
2015-01-31T14:02:24Z,1422712944,2015,14,2,31.585,31.585,84.72076,-61.49831,1022.0,-999.00,-37.5,yes,no,yes,48597,O-Buoy,Bigelow,unknown,North
2015-01-31T15:01:26Z,1422716486,2015,15,2,31.626,31.626,84.72076,-61.49831,1021.0,-999.00,-37.5,yes,no,yes,48597,O-Buoy,Bigelow,unknown,North
2015-01-31T16:01:55Z,1422720115,2015,16,2,31.668,31.668,84.72076,-61.49831,1021.0,-999.00,-38.1,yes,no,yes,48597,O-Buoy,Bigelow,unknown,North
2015-01-31T17:02:24Z,1422723744,2015,17,2,31.71,31.71,84.72076,-61.49831,1021.0,-999.00,-39.1,yes,no,yes,48597,O-Buoy,Bigelow,unknown,North
2015-01-31T18:01:26Z,1422727286,2015,18,2,31.751,31.751,84.72076,-61.49831,1020.0,-999.00,-39.5,yes,no,yes,48597,O-Buoy,Bigelow,unknown,North
2015-01-31T19:01:55Z,1422730915,2015,19,2,31.793,31.793,84.72076,-61.49831,1020.0,-999.00,-39.7,yes,no,yes,48597,O-Buoy,Bigelow,unknown,North
2015-01-31T20:02:24Z,1422734544,2015,20,2,31.835,31.835,84.72076,-61.49831,1020.0,-999.00,-38.6,yes,no,yes,48597,O-Buoy,Bigelow,unknown,North
2015-01-31T21:01:26Z,1422738086,2015,21,2,31.876,31.876,84.72076,-61.49831,1020.0,-999.00,-37.3,yes,no,yes,48597,O-Buoy,Bigelow,unknown,North
2015-01-31T22:01:55Z,1422741715,2015,22,2,31.918,31.918,84.72076,-61.49831,1020.0,-999.00,-35.9,yes,no,yes,48597,O-Buoy,Bigelow,unknown,North
2015-01-31T23:02:24Z,1422745344,2015,23,2,31.96,31.96,84.72076,-61.49831,1019.0,-999.00,-35.0,yes,no,yes,48597,O-Buoy,Bigelow,unknown,North
2015-02-01T00:01:26Z,1422748886,2015,0,2,32.001,32.001,84.71798,-61.52765,1019.0,-999.00,-34.0,yes,no,yes,48597,O-Buoy,Bigelow,unknown,North
2015-02-01T01:01:55Z,1422752515,2015,1,2,32.043,32.043,84.71798,-61.52765,1017.0,-999.00,-33.2,yes,no,yes,48597,O-Buoy,Bigelow,unknown,North
2015-02-01T02:02:24Z,1422756144,2015,2,2,32.085,32.085,84.71798,-61.52765,1017.0,-999.00,-32.5,yes,no,yes,48597,O-Buoy,Bigelow,unknown,North
2015-02-01T03:01:26Z,1422759686,2015,3,2,32.126,32.126,84.71798,-61.52765,1016.0,-999.00,-32.4,yes,no,yes,48597,O-Buoy,Bigelow,unknown,North
2015-02-01T04:01:55Z,1422763315,2015,4,2,32.168,32.168,84.71798,-61.52765,1015.0,-999.00,-31.9,yes,no,yes,48597,O-Buoy,Bigelow,unknown,North
2015-02-01T05:02:24Z,1422766944,2015,5,2,32.21,32.21,84.71798,-61.52765,1015.0,-999.00,-31.4,yes,no,yes,48597,O-Buoy,Bigelow,unknown,North
2015-02-01T06:01:26Z,1422770486,2015,6,2,32.251,32.251,84.71798,-61.52765,1015.0,-999.00,-30.1,yes,no,yes,48597,O-Buoy,Bigelow,unknown,North
2015-02-01T07:01:55Z,1422774115,2015,7,2,32.293,32.293,84.71798,-61.52765,1015.0,-999.00,-30.8,yes,no,yes,48597,O-Buoy,Bigelow,unknown,North
2015-02-01T08:02:24Z,1422777744,2015,8,2,32.335,32.335,84.71798,-61.52765,1015.0,-999.00,-31.3,yes,no,yes,48597,O-Buoy,Bigelow,unknown,North
2015-02-01T09:01:26Z,1422781286,2015,9,2,32.376,32.376,84.71798,-61.52765,1016.0,-999.00,-33.2,yes,no,yes,48597,O-Buoy,Bigelow,unknown,North
2015-02-01T10:01:55Z,1422784915,2015,10,2,32.418,32.418,84.71798,-61.52765,1017.0,-999.00,-34.7,yes,no,yes,48597,O-Buoy,Bigelow,unknown,North
2015-02-01T11:02:24Z,1422788544,2015,11,2,32.46,32.46,84.71798,-61.52765,1018.0,-999.00,-36.0,yes,no,yes,48597,O-Buoy,Bigelow,unknown,North
2015-02-01T12:01:26Z,1422792086,2015,12,2,32.501,32.501,84.71798,-61.52765,1018.0,-999.00,-37.3,yes,no,yes,48597,O-Buoy,Bigelow,unknown,North
2015-02-01T13:01:55Z,1422795715,2015,13,2,32.543,32.543,84.71798,-61.52765,1019.0,-999.00,-38.4,yes,no,yes,48597,O-Buoy,Bigelow,unknown,North
2015-02-01T14:02:24Z,1422799344,2015,14,2,32.585,32.585,84.71798,-61.52765,1019.0,-999.00,-39.2,yes,no,yes,48597,O-Buoy,Bigelow,unknown,North
2015-02-01T15:01:26Z,1422802886,2015,15,2,32.626,32.626,84.71798,-61.52765,1020.0,-999.00,-39.8,yes,no,yes,48597,O-Buoy,Bigelow,unknown,North
2015-02-01T16:01:55Z,1422806515,2015,16,2,32.668,32.668,84.71798,-61.52765,1021.0,-999.00,-40.2,yes,no,yes,48597,O-Buoy,Bigelow,unknown,North
2015-02-01T17:02:24Z,1422810144,2015,17,2,32.71,32.71,84.71798,-61.52765,1021.0,-999.00,-40.5,yes,no,yes,48597,O-Buoy,Bigelow,unknown,North
2015-02-01T18:01:26Z,1422813686,2015,18,2,32.751,32.751,84.71798,-61.52765,1021.0,-999.00,-40.4,yes,no,yes,48597,O-Buoy,Bigelow,unknown,North
2015-02-01T19:01:55Z,1422817315,2015,19,2,32.793,32.793,84.71798,-61.52765,1022.0,-999.00,-40.3,yes,no,yes,48597,O-Buoy,Bigelow,unknown,North
2015-02-01T20:02:24Z,1422820944,2015,20,2,32.835,32.835,84.71798,-61.52765,1022.0,-999.00,-39.5,yes,no,yes,48597,O-Buoy,Bigelow,unknown,North
2015-02-01T21:01:26Z,1422824486,2015,21,2,32.876,32.876,84.71798,-61.52765,1023.0,-999.00,-39.9,yes,no,yes,48597,O-Buoy,Bigelow,unknown,North
2015-02-01T22:01:55Z,1422828115,2015,22,2,32.918,32.918,84.71798,-61.52765,1023.0,-999.00,-40.5,yes,no,yes,48597,O-Buoy,Bigelow,unknown,North
2015-02-01T23:02:24Z,1422831744,2015,23,2,32.96,32.96,84.71798,-61.52765,1023.0,-999.00,-40.4,yes,no,yes,48597,O-Buoy,Bigelow,unknown,North
2015-02-02T00:01:26Z,1422835286,2015,0,2,33.001,33.001,84.7029,-61.70069,1023.0,-999.00,-40.4,yes,no,yes,48597,O-Buoy,Bigelow,unknown,North
2015-02-02T01:01:55Z,1422838915,2015,1,2,33.043,33.043,84.7029,-61.70069,1023.0,-999.00,-40.5,yes,no,yes,48597,O-Buoy,Bigelow,unknown,North
2015-02-02T02:02:24Z,1422842544,2015,2,2,33.085,33.085,84.7029,-61.70069,1024.0,-999.00,-40.9,yes,no,yes,48597,O-Buoy,Bigelow,unknown,North
2015-02-02T03:01:26Z,1422846086,2015,3,2,33.126,33.126,84.7029,-61.70069,1024.0,-999.00,-41.3,yes,no,yes,48597,O-Buoy,Bigelow,unknown,North
2015-02-02T04:01:55Z,1422849715,2015,4,2,33.168,33.168,84.7029,-61.70069,1023.0,-999.00,-41.9,yes,no,yes,48597,O-Buoy,Bigelow,unknown,North
2015-02-02T05:02:24Z,1422853344,2015,5,2,33.21,33.21,84.7029,-61.70069,1023.0,-999.00,-41.8,yes,no,yes,48597,O-Buoy,Bigelow,unknown,North
2015-02-02T06:01:26Z,1422856886,2015,6,2,33.251,33.251,84.7029,-61.70069,1023.0,-999.00,-41.7,yes,no,yes,48597,O-Buoy,Bigelow,unknown,North
2015-02-02T07:01:55Z,1422860515,2015,7,2,33.293,33.293,84.7029,-61.70069,1023.0,-999.00,-42.0,yes,no,yes,48597,O-Buoy,Bigelow,unknown,North
2015-02-02T08:02:24Z,1422864144,2015,8,2,33.335,33.335,84.7029,-61.70069,1023.0,-999.00,-42.5,yes,no,yes,48597,O-Buoy,Bigelow,unknown,North
2015-02-02T09:01:26Z,1422867686,2015,9,2,33.376,33.376,84.7029,-61.70069,1023.0,-999.00,-42.3,yes,no,yes,48597,O-Buoy,Bigelow,unknown,North
2015-02-02T10:01:55Z,1422871315,2015,10,2,33.418,33.418,84.7029,-61.70069,1023.0,-999.00,-42.6,yes,no,yes,48597,O-Buoy,Bigelow,unknown,North
2015-02-02T11:02:24Z,1422874944,2015,11,2,33.46,33.46,84.7029,-61.70069,1023.0,-999.00,-43.1,yes,no,yes,48597,O-Buoy,Bigelow,unknown,North
2015-02-02T12:01:26Z,1422878486,2015,12,2,33.501,33.501,84.7029,-61.70069,1022.0,-999.00,-42.6,yes,no,yes,48597,O-Buoy,Bigelow,unknown,North
2015-02-02T13:01:55Z,1422882115,2015,13,2,33.543,33.543,84.7029,-61.70069,1022.0,-999.00,-42.2,yes,no,yes,48597,O-Buoy,Bigelow,unknown,North
2015-02-02T14:02:24Z,1422885744,2015,14,2,33.585,33.585,84.7029,-61.70069,1021.0,-999.00,-42.6,yes,no,yes,48597,O-Buoy,Bigelow,unknown,North
2015-02-02T15:01:26Z,1422889286,2015,15,2,33.626,33.626,84.7029,-61.70069,1020.0,-999.00,-43.0,yes,no,yes,48597,O-Buoy,Bigelow,unknown,North
2015-02-02T16:01:55Z,1422892915,2015,16,2,33.668,33.668,84.7029,-61.70069,1020.0,-999.00,-43.6,yes,no,yes,48597,O-Buoy,Bigelow,unknown,North
2015-02-02T17:02:24Z,1422896544,2015,17,2,33.71,33.71,84.7029,-61.70069,1019.0,-999.00,-43.8,yes,no,yes,48597,O-Buoy,Bigelow,unknown,North
2015-02-02T18:02:52Z,1422900173,2015,18,3,33.752,33.752,84.7029,-61.70069,1018.0,-999.00,-43.6,yes,no,yes,48597,O-Buoy,Bigelow,unknown,North
2015-02-02T19:01:55Z,1422903715,2015,19,2,33.793,33.793,84.7029,-61.70069,1017.0,-999.00,-43.3,yes,no,yes,48597,O-Buoy,Bigelow,unknown,North
2015-02-02T20:02:24Z,1422907344,2015,20,2,33.835,33.835,84.7029,-61.70069,1016.0,-999.00,-43.7,yes,no,yes,48597,O-Buoy,Bigelow,unknown,North
2015-02-02T21:01:26Z,1422910886,2015,21,2,33.876,33.876,84.7029,-61.70069,1016.0,-999.00,-43.1,yes,no,yes,48597,O-Buoy,Bigelow,unknown,North
2015-02-02T22:01:55Z,1422914515,2015,22,2,33.918,33.918,84.7029,-61.70069,1015.0,-999.00,-42.5,yes,no,yes,48597,O-Buoy,Bigelow,unknown,North
2015-02-02T23:02:24Z,1422918144,2015,23,2,33.96,33.96,84.7029,-61.70069,1014.0,-999.00,-42.1,yes,no,yes,48597,O-Buoy,Bigelow,unknown,North
2015-02-03T00:01:26Z,1422921686,2015,0,2,34.001,34.001,84.70169,-61.69727,1014.0,-999.00,-41.7,yes,no,yes,48597,O-Buoy,Bigelow,unknown,North
2015-02-03T01:00:28Z,1422925229,2015,1,1,34.042,34.042,84.70169,-61.69727,1013.0,-999.00,-41.5,yes,no,yes,48597,O-Buoy,Bigelow,unknown,North
2015-02-03T02:00:57Z,1422928858,2015,2,1,34.084,34.084,84.70169,-61.69727,1013.0,-999.00,-41.1,yes,no,yes,48597,O-Buoy,Bigelow,unknown,North
2015-02-03T03:01:26Z,1422932486,2015,3,1,34.126,34.126,84.70169,-61.69727,1012.0,-999.00,-40.9,yes,no,yes,48597,O-Buoy,Bigelow,unknown,North
2015-02-03T04:00:28Z,1422936029,2015,4,1,34.167,34.167,84.70169,-61.69727,1011.0,-999.00,-41.0,yes,no,yes,48597,O-Buoy,Bigelow,unknown,North
2015-02-03T05:00:57Z,1422939658,2015,5,1,34.209,34.209,84.70169,-61.69727,1010.0,-999.00,-41.4,yes,no,yes,48597,O-Buoy,Bigelow,unknown,North
2015-02-03T06:01:26Z,1422943286,2015,6,1,34.251,34.251,84.70169,-61.69727,1010.0,-999.00,-40.4,yes,no,yes,48597,O-Buoy,Bigelow,unknown,North
2015-02-03T07:00:28Z,1422946829,2015,7,1,34.292,34.292,84.70169,-61.69727,1008.0,-999.00,-40.2,yes,no,yes,48597,O-Buoy,Bigelow,unknown,North
2015-02-03T08:02:24Z,1422950544,2015,8,2,34.335,34.335,84.70169,-61.69727,1007.0,-999.00,-40.1,yes,no,yes,48597,O-Buoy,Bigelow,unknown,North
2015-02-03T09:01:26Z,1422954086,2015,9,2,34.376,34.376,84.70169,-61.69727,1006.0,-999.00,-38.7,yes,no,yes,48597,O-Buoy,Bigelow,unknown,North
2015-02-03T10:01:55Z,1422957715,2015,10,2,34.418,34.418,84.70169,-61.69727,1005.0,-999.00,-37.5,yes,no,yes,48597,O-Buoy,Bigelow,unknown,North
2015-02-03T11:02:24Z,1422961344,2015,11,2,34.46,34.46,84.70169,-61.69727,1004.0,-999.00,-37.2,yes,no,yes,48597,O-Buoy,Bigelow,unknown,North
2015-02-03T12:01:26Z,1422964886,2015,12,2,34.501,34.501,84.70169,-61.69727,1003.0,-999.00,-38.0,yes,no,yes,48597,O-Buoy,Bigelow,unknown,North
2015-02-03T13:01:55Z,1422968515,2015,13,2,34.543,34.543,84.70169,-61.69727,1002.0,-999.00,-37.7,yes,no,yes,48597,O-Buoy,Bigelow,unknown,North
2015-02-03T14:02:24Z,1422972144,2015,14,2,34.585,34.585,84.70169,-61.69727,1001.0,-999.00,-37.3,yes,no,yes,48597,O-Buoy,Bigelow,unknown,North
2015-02-03T15:01:26Z,1422975686,2015,15,2,34.626,34.626,84.70169,-61.69727,999.0,-999.00,-36.4,yes,no,yes,48597,O-Buoy,Bigelow,unknown,North
2015-02-03T16:01:55Z,1422979315,2015,16,2,34.668,34.668,84.70169,-61.69727,998.0,-999.00,-36.1,yes,no,yes,48597,O-Buoy,Bigelow,unknown,North
2015-02-03T17:02:24Z,1422982944,2015,17,2,34.71,34.71,84.70169,-61.69727,997.0,-999.00,-35.8,yes,no,yes,48597,O-Buoy,Bigelow,unknown,North
2015-02-03T18:01:26Z,1422986486,2015,18,2,34.751,34.751,84.70169,-61.69727,996.0,-999.00,-35.5,yes,no,yes,48597,O-Buoy,Bigelow,unknown,North
2015-02-03T19:01:55Z,1422990115,2015,19,2,34.793,34.793,84.70169,-61.69727,994.0,-999.00,-36.6,yes,no,yes,48597,O-Buoy,Bigelow,unknown,North
2015-02-03T20:02:24Z,1422993744,2015,20,2,34.835,34.835,84.70169,-61.69727,994.0,-999.00,-38.7,yes,no,yes,48597,O-Buoy,Bigelow,unknown,North
2015-02-03T21:01:26Z,1422997286,2015,21,2,34.876,34.876,84.70169,-61.69727,993.0,-999.00,-39.5,yes,no,yes,48597,O-Buoy,Bigelow,unknown,North
2015-02-03T22:01:55Z,1423000915,2015,22,2,34.918,34.918,84.70169,-61.69727,993.0,-999.00,-39.6,yes,no,yes,48597,O-Buoy,Bigelow,unknown,North
2015-02-03T23:02:24Z,1423004544,2015,23,2,34.96,34.96,84.70169,-61.69727,992.0,-999.00,-39.9,yes,no,yes,48597,O-Buoy,Bigelow,unknown,North
2015-02-04T00:01:26Z,1423008086,2015,0,2,35.001,35.001,84.68721,-61.43436,991.0,-999.00,-39.7,yes,no,yes,48597,O-Buoy,Bigelow,unknown,North
2015-02-04T01:01:55Z,1423011715,2015,1,2,35.043,35.043,84.68721,-61.43436,990.0,-999.00,-39.7,yes,no,yes,48597,O-Buoy,Bigelow,unknown,North
2015-02-04T02:02:24Z,1423015344,2015,2,2,35.085,35.085,84.68721,-61.43436,990.0,-999.00,-39.5,yes,no,yes,48597,O-Buoy,Bigelow,unknown,North
2015-02-04T03:01:26Z,1423018886,2015,3,2,35.126,35.126,84.68721,-61.43436,990.0,-999.00,-39.7,yes,no,yes,48597,O-Buoy,Bigelow,unknown,North
2015-02-04T04:01:55Z,1423022515,2015,4,2,35.168,35.168,84.68721,-61.43436,989.0,-999.00,-39.5,yes,no,yes,48597,O-Buoy,Bigelow,unknown,North
2015-02-04T05:02:24Z,1423026144,2015,5,2,35.21,35.21,84.68721,-61.43436,989.0,-999.00,-39.3,yes,no,yes,48597,O-Buoy,Bigelow,unknown,North
2015-02-04T06:02:52Z,1423029773,2015,6,3,35.252,35.252,84.68721,-61.43436,990.0,-999.00,-39.5,yes,no,yes,48597,O-Buoy,Bigelow,unknown,North
2015-02-04T07:01:55Z,1423033315,2015,7,2,35.293,35.293,84.68721,-61.43436,990.0,-999.00,-39.4,yes,no,yes,48597,O-Buoy,Bigelow,unknown,North
2015-02-04T08:02:24Z,1423036944,2015,8,2,35.335,35.335,84.68721,-61.43436,990.0,-999.00,-38.8,yes,no,yes,48597,O-Buoy,Bigelow,unknown,North
2015-02-04T09:01:26Z,1423040486,2015,9,2,35.376,35.376,84.68721,-61.43436,990.0,-999.00,-38.3,yes,no,yes,48597,O-Buoy,Bigelow,unknown,North
2015-02-04T10:01:55Z,1423044115,2015,10,2,35.418,35.418,84.68721,-61.43436,990.0,-999.00,-38.0,yes,no,yes,48597,O-Buoy,Bigelow,unknown,North
2015-02-04T11:02:24Z,1423047744,2015,11,2,35.46,35.46,84.68721,-61.43436,990.0,-999.00,-37.7,yes,no,yes,48597,O-Buoy,Bigelow,unknown,North
2015-02-04T12:02:52Z,1423051373,2015,12,3,35.502,35.502,84.68721,-61.43436,991.0,-999.00,-37.6,yes,no,yes,48597,O-Buoy,Bigelow,unknown,North
2015-02-04T13:01:55Z,1423054915,2015,13,2,35.543,35.543,84.68721,-61.43436,990.0,-999.00,-37.4,yes,no,yes,48597,O-Buoy,Bigelow,unknown,North
2015-02-04T14:02:24Z,1423058544,2015,14,2,35.585,35.585,84.68721,-61.43436,990.0,-999.00,-37.1,yes,no,yes,48597,O-Buoy,Bigelow,unknown,North
2015-02-04T15:01:26Z,1423062086,2015,15,2,35.626,35.626,84.68721,-61.43436,989.0,-999.00,-37.0,yes,no,yes,48597,O-Buoy,Bigelow,unknown,North
2015-02-04T16:01:55Z,1423065715,2015,16,2,35.668,35.668,84.68721,-61.43436,989.0,-999.00,-36.7,yes,no,yes,48597,O-Buoy,Bigelow,unknown,North
2015-02-04T17:02:24Z,1423069344,2015,17,2,35.71,35.71,84.68721,-61.43436,988.0,-999.00,-36.5,yes,no,yes,48597,O-Buoy,Bigelow,unknown,North
2015-02-04T18:01:26Z,1423072886,2015,18,2,35.751,35.751,84.68721,-61.43436,987.0,-999.00,-35.9,yes,no,yes,48597,O-Buoy,Bigelow,unknown,North
2015-02-04T19:01:55Z,1423076515,2015,19,2,35.793,35.793,84.68721,-61.43436,987.0,-999.00,-35.0,yes,no,yes,48597,O-Buoy,Bigelow,unknown,North
2015-02-04T20:02:24Z,1423080144,2015,20,2,35.835,35.835,84.68721,-61.43436,987.0,-999.00,-33.9,yes,no,yes,48597,O-Buoy,Bigelow,unknown,North
2015-02-04T21:01:26Z,1423083686,2015,21,2,35.876,35.876,84.68721,-61.43436,986.0,-999.00,-33.2,yes,no,yes,48597,O-Buoy,Bigelow,unknown,North
2015-02-04T22:01:55Z,1423087315,2015,22,2,35.918,35.918,84.68721,-61.43436,986.0,-999.00,-32.6,yes,no,yes,48597,O-Buoy,Bigelow,unknown,North
2015-02-04T23:02:24Z,1423090944,2015,23,2,35.96,35.96,84.68721,-61.43436,986.0,-999.00,-32.1,yes,no,yes,48597,O-Buoy,Bigelow,unknown,North
2015-02-05T00:01:26Z,1423094486,2015,0,2,36.001,36.001,84.70253,-59.90995,986.0,-999.00,-31.3,yes,no,yes,48597,O-Buoy,Bigelow,unknown,North
2015-02-05T01:01:55Z,1423098115,2015,1,2,36.043,36.043,84.70253,-59.90995,986.0,-999.00,-31.2,yes,no,yes,48597,O-Buoy,Bigelow,unknown,North
2015-02-05T02:02:24Z,1423101744,2015,2,2,36.085,36.085,84.70253,-59.90995,987.0,-999.00,-32.4,yes,no,yes,48597,O-Buoy,Bigelow,unknown,North
2015-02-05T03:01:26Z,1423105286,2015,3,2,36.126,36.126,84.70253,-59.90995,987.0,-999.00,-33.1,yes,no,yes,48597,O-Buoy,Bigelow,unknown,North
2015-02-05T04:01:55Z,1423108915,2015,4,2,36.168,36.168,84.70253,-59.90995,987.0,-999.00,-33.8,yes,no,yes,48597,O-Buoy,Bigelow,unknown,North
2015-02-05T05:02:24Z,1423112544,2015,5,2,36.21,36.21,84.70253,-59.90995,987.0,-999.00,-33.9,yes,no,yes,48597,O-Buoy,Bigelow,unknown,North
2015-02-05T06:01:26Z,1423116086,2015,6,2,36.251,36.251,84.70253,-59.90995,988.0,-999.00,-34.0,yes,no,yes,48597,O-Buoy,Bigelow,unknown,North
2015-02-05T07:01:55Z,1423119715,2015,7,2,36.293,36.293,84.70253,-59.90995,988.0,-999.00,-34.3,yes,no,yes,48597,O-Buoy,Bigelow,unknown,North
2015-02-05T08:02:24Z,1423123344,2015,8,2,36.335,36.335,84.70253,-59.90995,989.0,-999.00,-34.4,yes,no,yes,48597,O-Buoy,Bigelow,unknown,North
2015-02-05T09:01:26Z,1423126886,2015,9,2,36.376,36.376,84.70253,-59.90995,990.0,-999.00,-35.2,yes,no,yes,48597,O-Buoy,Bigelow,unknown,North
2015-02-05T10:01:55Z,1423130515,2015,10,2,36.418,36.418,84.70253,-59.90995,991.0,-999.00,-35.4,yes,no,yes,48597,O-Buoy,Bigelow,unknown,North
2015-02-05T11:02:24Z,1423134144,2015,11,2,36.46,36.46,84.70253,-59.90995,991.0,-999.00,-35.4,yes,no,yes,48597,O-Buoy,Bigelow,unknown,North
2015-02-05T12:01:26Z,1423137686,2015,12,2,36.501,36.501,84.70253,-59.90995,992.0,-999.00,-35.2,yes,no,yes,48597,O-Buoy,Bigelow,unknown,North
2015-02-05T13:01:55Z,1423141315,2015,13,2,36.543,36.543,84.70253,-59.90995,992.0,-999.00,-35.0,yes,no,yes,48597,O-Buoy,Bigelow,unknown,North
2015-02-05T14:02:24Z,1423144944,2015,14,2,36.585,36.585,84.70253,-59.90995,993.0,-999.00,-34.4,yes,no,yes,48597,O-Buoy,Bigelow,unknown,North
2015-02-05T15:01:26Z,1423148486,2015,15,2,36.626,36.626,84.70253,-59.90995,993.0,-999.00,-33.4,yes,no,yes,48597,O-Buoy,Bigelow,unknown,North
2015-02-05T16:01:55Z,1423152115,2015,16,2,36.668,36.668,84.70253,-59.90995,994.0,-999.00,-33.6,yes,no,yes,48597,O-Buoy,Bigelow,unknown,North
2015-02-05T17:02:24Z,1423155744,2015,17,2,36.71,36.71,84.70253,-59.90995,994.0,-999.00,-34.0,yes,no,yes,48597,O-Buoy,Bigelow,unknown,North
2015-02-05T18:01:26Z,1423159286,2015,18,2,36.751,36.751,84.70253,-59.90995,994.0,-999.00,-33.1,yes,no,yes,48597,O-Buoy,Bigelow,unknown,North
2015-02-05T19:01:55Z,1423162915,2015,19,2,36.793,36.793,84.70253,-59.90995,994.0,-999.00,-32.3,yes,no,yes,48597,O-Buoy,Bigelow,unknown,North
2015-02-05T20:02:24Z,1423166544,2015,20,2,36.835,36.835,84.70253,-59.90995,994.0,-999.00,-31.1,yes,no,yes,48597,O-Buoy,Bigelow,unknown,North
2015-02-05T21:01:26Z,1423170086,2015,21,2,36.876,36.876,84.70253,-59.90995,994.0,-999.00,-30.9,yes,no,yes,48597,O-Buoy,Bigelow,unknown,North
2015-02-05T22:01:55Z,1423173715,2015,22,2,36.918,36.918,84.70253,-59.90995,995.0,-999.00,-31.1,yes,no,yes,48597,O-Buoy,Bigelow,unknown,North
2015-02-05T23:02:24Z,1423177344,2015,23,2,36.96,36.96,84.70253,-59.90995,995.0,-999.00,-31.7,yes,no,yes,48597,O-Buoy,Bigelow,unknown,North
2015-02-06T00:01:26Z,1423180886,2015,0,2,37.001,37.001,84.70334,-58.29486,995.0,-999.00,-32.4,yes,no,yes,48597,O-Buoy,Bigelow,unknown,North
2015-02-06T01:01:55Z,1423184515,2015,1,2,37.043,37.043,84.70334,-58.29486,995.0,-999.00,-31.3,yes,no,yes,48597,O-Buoy,Bigelow,unknown,North
2015-02-06T02:02:24Z,1423188144,2015,2,2,37.085,37.085,84.70334,-58.29486,995.0,-999.00,-32.0,yes,no,yes,48597,O-Buoy,Bigelow,unknown,North
2015-02-06T03:01:26Z,1423191686,2015,3,2,37.126,37.126,84.70334,-58.29486,994.0,-999.00,-32.1,yes,no,yes,48597,O-Buoy,Bigelow,unknown,North
2015-02-06T04:01:55Z,1423195315,2015,4,2,37.168,37.168,84.70334,-58.29486,995.0,-999.00,-31.5,yes,no,yes,48597,O-Buoy,Bigelow,unknown,North
2015-02-06T05:02:24Z,1423198944,2015,5,2,37.21,37.21,84.70334,-58.29486,994.0,-999.00,-31.5,yes,no,yes,48597,O-Buoy,Bigelow,unknown,North
2015-02-06T06:01:26Z,1423202486,2015,6,2,37.251,37.251,84.70334,-58.29486,994.0,-999.00,-31.4,yes,no,yes,48597,O-Buoy,Bigelow,unknown,North
2015-02-06T07:01:55Z,1423206115,2015,7,2,37.293,37.293,84.70334,-58.29486,995.0,-999.00,-32.6,yes,no,yes,48597,O-Buoy,Bigelow,unknown,North
2015-02-06T08:02:24Z,1423209744,2015,8,2,37.335,37.335,84.70334,-58.29486,995.0,-999.00,-33.3,yes,no,yes,48597,O-Buoy,Bigelow,unknown,North
2015-02-06T09:01:26Z,1423213286,2015,9,2,37.376,37.376,84.70334,-58.29486,995.0,-999.00,-33.2,yes,no,yes,48597,O-Buoy,Bigelow,unknown,North
2015-02-06T10:01:55Z,1423216915,2015,10,2,37.418,37.418,84.70334,-58.29486,995.0,-999.00,-33.1,yes,no,yes,48597,O-Buoy,Bigelow,unknown,North
2015-02-06T11:02:24Z,1423220544,2015,11,2,37.46,37.46,84.70334,-58.29486,995.0,-999.00,-32.8,yes,no,yes,48597,O-Buoy,Bigelow,unknown,North
2015-02-06T12:01:26Z,1423224086,2015,12,2,37.501,37.501,84.70334,-58.29486,995.0,-999.00,-32.1,yes,no,yes,48597,O-Buoy,Bigelow,unknown,North